GW0207 Weather Reports


Display with metric or nautical units.
time (UTC)temp
F
wind
direction
speed
MPH
gust
MPH
rain 1hr
in
rain 24hr
in
rain mn
in
humidity
%
barometer
mb
20260503213101 65 34 0.0 0.0 0.00 0.00 0.00 36 1015.2
20260503212603 65 50 0.0 4.0 0.00 0.00 0.00 36 1015.2
20260503212103 66 12 0.0 4.0 0.00 0.00 0.00 34 1015.2
20260503211823 65 6 0.0 1.0 0.00 0.00 0.00 36 1015.2
20260503211102 65 358 0.0 2.0 0.00 0.00 0.00 35 1015.2
20260503210605 66 9 0.0 2.0 0.00 0.00 0.00 35 1015.3
20260503210559 67 46 0.0 2.0 0.00 0.00 0.00 37 1015.3
20260503205604 67 38 0.0 2.0 0.00 0.00 0.00 35 1015.3
20260503205103 67 184 0.0 6.0 0.00 0.00 0.00 36 1015.3
20260503204602 67 3 0.0 6.0 0.00 0.00 0.00 36 1015.4
20260503204103 67 15 0.0 4.0 0.00 0.00 0.00 38 1015.4
20260503203604 67 6 0.0 4.0 0.00 0.00 0.00 34 1015.4
20260503203103 67 116 0.0 3.0 0.00 0.00 0.00 37 1015.5
20260503202602 67 65 0.0 2.0 0.00 0.00 0.00 36 1015.5
20260503202103 66 10 0.0 1.0 0.00 0.00 0.00 36 1015.5
20260503201603 66 17 0.0 1.0 0.00 0.00 0.00 34 1015.5
20260503201104 66 1 0.0 1.0 0.00 0.00 0.00 36 1015.6
20260503200604 66 41 0.0 3.0 0.00 0.00 0.00 34 1015.7
20260503195603 66 82 0.0 1.0 0.00 0.00 0.00 38 1015.9
20260503195103 66 41 0.0 8.0 0.00 0.00 0.00 36 1015.9
20260503194601 65 40 0.0 8.0 0.00 0.00 0.00 37 1016.0
20260503194326 66 56 0.0 4.0 0.00 0.00 0.00 36 1016.1
20260503193828 65 116 0.0 6.0 0.00 0.00 0.00 40 1016.1
20260503193329 65 107 0.0 6.0 0.00 0.00 0.00 37 1016.1
20260503192602 66 357 0.0 1.0 0.00 0.00 0.00 38 1016.2
20260503192100 66 42 0.0 1.0 0.00 0.00 0.00 37 1016.2
20260503191601 66 90 0.0 2.0 0.00 0.00 0.00 39 1016.5
20260503191101 65 31 0.0 5.0 0.00 0.00 0.00 35 1016.5
20260503190601 65 356 0.0 5.0 0.00 0.00 0.00 35 1016.6
20260503190101 65 38 0.0 4.0 0.00 0.00 0.00 36 1016.6
20260503185601 65 172 0.0 1.0 0.00 0.00 0.00 40 1016.6
20260503185101 64 296 0.0 4.0 0.00 0.00 0.00 37 1016.7
20260503184601 64 8 0.0 5.0 0.00 0.00 0.00 37 1016.8
20260503184101 64 13 0.0 5.0 0.00 0.00 0.00 39 1016.9
20260503183601 64 306 0.0 4.0 0.00 0.00 0.00 36 1016.9
20260503183101 64 304 0.0 4.0 0.00 0.00 0.00 38 1016.8
20260503182602 64 357 0.0 4.0 0.00 0.00 0.00 39 1017.0
20260503182101 64 36 0.0 3.0 0.00 0.00 0.00 40 1017.0
20260503181602 64 95 0.0 3.0 0.00 0.00 0.00 39 1017.0
20260503181101 64 277 0.0 3.0 0.00 0.00 0.00 39 1017.1
20260503180601 63 266 0.0 3.0 0.00 0.00 0.00 38 1017.1
20260503175601 63 307 0.0 4.0 0.00 0.00 0.00 39 1017.3
20260503175100 62 349 0.0 3.0 0.00 0.00 0.00 40 1017.4
20260503174601 62 195 0.0 5.0 0.00 0.00 0.00 38 1017.5
20260503174101 62 151 1.0 5.0 0.00 0.00 0.00 40 1017.5
20260503173601 62 30 0.0 5.0 0.00 0.00 0.00 40 1017.5
20260503173100 62 293 0.0 4.0 0.00 0.00 0.00 43 1017.4
20260503172815 62 1 0.0 5.0 0.00 0.00 0.00 42 1017.5
20260503172800 62 218 0.0 3.0 0.00 0.00 0.00 42 1017.5
20260503171601 62 333 0.0 5.0 0.00 0.00 0.00 43 1017.7
20260503171101 62 5 0.0 3.0 0.00 0.00 0.00 43 1017.6
20260503170601 61 64 0.0 4.0 0.00 0.00 0.00 43 1017.7
20260503170326 61 15 0.0 4.0 0.00 0.00 0.00 41 1017.8
20260503150605 57 351 0.0 4.0 0.00 0.03 0.00 46 1018.8
20260503150327 57 80 0.0 6.0 0.00 0.03 0.00 47 1018.8
20260503140104 55 303 0.0 7.0 0.00 0.07 0.00 56 1018.6
20260503131100 52 87 0.0 5.0 0.00 0.12 0.00 65 1018.6
20260503130601 52 127 0.0 5.0 0.00 0.12 0.00 65 1018.7
20260503110602 38 202 0.0 0.0 0.00 0.16 0.00 89 1017.1
20260503100103 39 354 0.0 0.0 0.00 0.17 0.00 87 1016.3
20260503081601 41 15 0.0 0.0 0.00 0.17 0.00 87 1015.0
20260503081323 41 15 0.0 1.0 0.00 0.17 0.00 87 1014.9
20260503080600 41 2 0.0 1.0 0.00 0.17 0.00 88 1014.9
20260503072601 41 83 0.0 0.0 0.00 0.17 0.00 92 1014.2
20260503072101 41 357 0.0 0.0 0.00 0.17 0.00 92 1014.2
20260503071601 41 357 0.0 0.0 0.00 0.17 0.00 93 1014.2
20260503071102 41 60 0.0 0.0 0.00 0.17 0.00 94 1014.2
20260503070601 41 60 0.0 0.0 0.00 0.17 0.00 94 1014.2
20260503070545 41 116 0.0 0.0 0.00 0.17 0.00 94 1014.1
20260503060105 42 227 0.0 0.0 0.00 0.17 0.00 96 1013.8
20260503054603 43 227 0.0 0.0 0.00 0.17 0.00 96 1013.7
20260503054104 43 227 0.0 0.0 0.00 0.17 0.00 96 1013.8
20260503053603 43 227 0.0 0.0 0.00 0.17 0.00 96 1013.8
20260503053327 43 227 0.0 0.0 0.00 0.17 0.00 96 1013.8
20260503052603 43 227 0.0 0.0 0.00 0.17 0.00 96 1013.8
20260503052102 44 227 0.0 0.0 0.00 0.17 0.00 96 1013.7
20260503051603 44 227 0.0 0.0 0.00 0.17 0.00 96 1013.7
20260503051103 44 227 0.0 0.0 0.00 0.17 0.00 96 1013.7
20260503050603 44 227 0.0 0.0 0.00 0.17 0.00 96 1013.8
20260503045603 45 227 0.0 0.0 0.00 0.17 0.00 96 1013.8
20260503045103 45 227 0.0 0.0 0.00 0.17 0.00 96 1013.9
20260503044603 45 227 0.0 0.0 0.00 0.17 0.00 96 1013.9
20260503044103 45 227 0.0 0.0 0.00 0.17 0.00 96 1013.9
20260503043605 45 227 0.0 0.0 0.00 0.17 0.00 96 1014.0
20260503043102 45 227 0.0 0.0 0.00 0.17 0.00 96 1013.9
20260503042603 45 227 0.0 0.0 0.00 0.17 0.00 96 1013.8
20260503042103 46 227 0.0 0.0 0.00 0.17 0.00 96 1013.8
20260503041602 45 227 0.0 0.0 0.00 0.17 0.00 96 1013.8
20260503041105 46 227 0.0 0.0 0.00 0.17 0.00 96 1013.7
20260503040603 46 227 0.0 0.0 0.00 0.17 0.00 96 1013.7
20260503040326 46 227 0.0 0.0 0.00 0.17 0.00 96 1013.6
20260503035603 46 227 0.0 0.0 0.00 0.17 0.17 96 1013.5
20260503035105 46 227 0.0 0.0 0.00 0.17 0.17 96 1013.5
20260503034602 46 227 0.0 0.0 0.00 0.17 0.17 95 1013.5
20260503034101 46 227 0.0 0.0 0.00 0.17 0.17 95 1013.5
20260503033601 46 227 0.0 0.0 0.00 0.17 0.17 95 1013.6
20260503033100 46 227 0.0 0.0 0.00 0.17 0.17 95 1013.6
20260503032601 47 227 0.0 0.0 0.00 0.17 0.17 95 1013.5
20260503032102 47 227 0.0 0.0 0.00 0.17 0.17 95 1013.4
20260503031600 47 227 0.0 0.0 0.00 0.17 0.17 95 1013.3
20260503031101 47 227 0.0 0.0 0.00 0.17 0.17 95 1013.2
20260503030602 47 227 0.0 0.0 0.00 0.17 0.17 95 1013.2
20260503030328 48 227 0.0 0.0 0.00 0.17 0.17 95 1013.1
20260503025601 48 227 0.0 0.0 0.00 0.17 0.17 95 1013.2
20260503025100 48 227 0.0 0.0 0.00 0.17 0.17 95 1013.1
20260503024601 49 227 0.0 0.0 0.00 0.17 0.17 95 1013.1
20260503024104 49 227 0.0 0.0 0.00 0.17 0.17 95 1013.1
20260503023603 49 227 0.0 0.0 0.00 0.17 0.17 95 1013.0
20260503023103 49 227 0.0 0.0 0.00 0.17 0.17 95 1013.0
20260503022603 49 227 0.0 0.0 0.00 0.17 0.17 95 1013.0
20260503022104 49 227 0.0 0.0 0.00 0.17 0.17 95 1013.0
20260503021604 49 227 0.0 0.0 0.00 0.17 0.17 95 1013.1
20260503021104 49 227 0.0 0.0 0.00 0.17 0.17 95 1013.2
20260503020602 49 227 0.0 0.0 0.00 0.17 0.17 95 1013.2
20260503015603 49 227 0.0 0.0 0.00 0.17 0.17 95 1013.0
20260503015105 49 227 0.0 0.0 0.00 0.17 0.17 95 1013.0
20260503014603 49 227 0.0 0.0 0.00 0.17 0.17 94 1013.0
20260503014103 49 227 0.0 0.0 0.00 0.17 0.17 94 1013.1
20260503013603 49 227 0.0 0.0 0.00 0.17 0.17 94 1012.9
20260503013103 49 227 0.0 0.0 0.00 0.17 0.17 94 1012.9
20260503012605 50 227 0.0 0.0 0.00 0.17 0.17 94 1012.7
20260503012103 50 227 0.0 0.0 0.00 0.17 0.17 94 1012.7
20260503011828 50 227 0.0 0.0 0.00 0.17 0.17 94 1012.6
20260503011105 50 227 0.0 0.0 0.00 0.17 0.17 93 1012.5
20260503010603 50 227 0.0 0.0 0.00 0.17 0.17 93 1012.4
20260503005602 51 227 0.0 0.0 0.00 0.17 0.17 93 1012.2
20260503005103 51 227 0.0 0.0 0.00 0.17 0.17 93 1012.2
20260503004603 51 227 0.0 0.0 0.00 0.17 0.17 92 1012.2
20260503004103 51 227 0.0 0.0 0.00 0.17 0.17 92 1012.2
20260503003603 52 227 0.0 0.0 0.00 0.17 0.17 92 1012.1
20260503003103 52 227 0.0 0.0 0.00 0.17 0.17 92 1012.1
20260503002603 52 227 0.0 0.0 0.00 0.17 0.17 92 1011.9
20260503002103 53 227 0.0 0.0 0.00 0.17 0.17 91 1011.8
20260503001603 53 227 0.0 0.0 0.00 0.17 0.17 91 1011.8
20260503001101 53 227 0.0 0.0 0.00 0.17 0.17 91 1011.7
20260503000601 53 227 0.0 0.0 0.00 0.17 0.17 91 1011.6
20260502235824 54 227 0.0 0.0 0.00 0.17 0.17 91 1011.4
20260502235100 54 227 0.0 0.0 0.00 0.17 0.17 91 1011.4
20260502234824 54 227 0.0 0.0 0.00 0.17 0.17 91 1011.4
20260502234101 54 227 0.0 0.0 0.00 0.17 0.17 91 1011.4
20260502233601 54 228 0.0 0.0 0.00 0.17 0.17 91 1011.4
20260502233103 54 228 0.0 0.0 0.00 0.17 0.17 90 1011.2
20260502232600 54 228 0.0 0.0 0.00 0.17 0.17 90 1011.3
20260502232326 54 228 0.0 0.0 0.00 0.17 0.17 90 1011.2
20260502231825 55 227 0.0 0.0 0.00 0.17 0.17 90 1011.1
20260502231331 55 252 0.0 0.0 0.00 0.17 0.17 90 1011.1
20260502230600 55 252 0.0 0.0 0.00 0.17 0.17 90 1011.0
20260502230325 55 249 0.0 0.0 0.00 0.17 0.17 89 1011.0
20260502225603 55 249 0.0 0.0 0.00 0.17 0.17 89 1011.0
20260502225059 55 249 0.0 2.0 0.00 0.17 0.17 89 1011.0
20260502224553 55 249 0.0 2.0 0.00 0.17 0.17 89 1011.1
20260502224047 55 249 0.0 0.0 0.00 0.17 0.17 88 1011.1
20260502223545 55 249 0.0 1.0 0.00 0.17 0.17 88 1011.1
20260502223037 55 249 0.0 1.0 0.00 0.17 0.17 88 1011.1
20260502222537 55 250 0.0 0.0 0.00 0.17 0.17 87 1011.0
20260502222038 56 250 0.0 0.0 0.00 0.17 0.17 87 1011.0
20260502221535 56 250 0.0 0.0 0.00 0.17 0.17 87 1011.0
20260502221033 56 249 0.0 0.0 0.00 0.17 0.17 86 1010.9
20260502220535 56 249 0.0 0.0 0.00 0.17 0.17 86 1010.8
20260502220032 56 250 0.0 0.0 0.00 0.17 0.17 86 1010.7
20260502215532 56 257 0.0 0.0 0.00 0.17 0.17 86 1010.7
20260502215031 56 257 0.0 0.0 0.00 0.17 0.17 85 1010.7
20260502215016 56 257 0.0 0.0 0.00 0.17 0.17 85 1010.7
20260502214031 56 235 0.0 0.0 0.00 0.17 0.17 85 1010.8
20260502213531 56 223 0.0 0.0 0.00 0.17 0.17 85 1010.8